Regional Weather Roundup
Issued by NWS

Home | Current Version | Previous Version | Text Only | Print | Product List | Glossary Off
Versions: 1 2 3 4 5 6 7 8 9 10 11 12 13 14 15 16 17 18 19 20 21 22 23 24 25 26 27 28 29 30 31 32 33 34 35 36 37 38 39 40 41 42 43 44 45 46 47 48 49 50

000
ASUS45 KTFX 200210
RWRMT
MONTANA REGIONAL WEATHER ROUNDUP
NATIONAL WEATHER SERVICE GREAT FALLS MT
700 PM MST SUN FEB 19 2017

NOTE: "FAIR" INDICATES FEW OR NO CLOUDS BELOW 12000 FEET WITH NO
SIGNIFICANT WEATHER AND/OR OBSTRUCTIONS TO VISIBILITY.

MTZ001>007-043-200300-
WEST OF THE DIVIDE

CITY           SKY/WX    TMP DP  RH WIND       PRES   REMARKS
KALISPELL      LGT RAIN  37  31  78 SW9       29.58R WCI  30
MISSOULA       MOCLDY    39  30  70 SE14      29.63R WCI  31
BUTTE          CLOUDY    36  27  69 S8        29.61R WCI  30
MULLAN PASS    MOCLDY    23  22  96 VRB5      29.57S
ANACONDA         N/A     37  23  56 SW18G25   29.63R WCI  27
DEER LODGE       N/A     37  25  60 NW6       29.62R
EUREKA           N/A     39  27  60 CALM      29.57R
HAMILTON         N/A     37  28  70 W3        29.65R
LIBBY            N/A     34  34 100 CALM      29.60R
PLAINS           N/A     36  30  79 CALM      29.67R
RONAN            N/A     36  32  85 SW26      29.69R WCI  24
$$

MTZ008-052>055-200300-
SOUTHWEST MONTANA

CITY           SKY/WX    TMP DP  RH WIND       PRES   REMARKS
BOZEMAN        MOCLDY    35  31  85 E13       29.63F WCI  26
DILLON         CLOUDY    35  27  72 S21       29.63R WCI  24
W YELLOWSTONE  FOG       28  27  93 SW22G30   29.70R VSB 3/4 WCI  15
ENNIS          CLOUDY    37  23  56 S13G20    29.69R WCI  29
THREE FORKS      N/A     40   0  18 SW2       29.64R
TWIN BRIDGES     N/A     39  27  62 SE12      29.68R WCI  32
$$

MTZ009-010-012-014-046-048-049-054-200300-
EAST SLOPES AND CENTRAL MONTANA

CITY           SKY/WX    TMP DP  RH WIND       PRES   REMARKS
CUT BANK       CLEAR     35  22  58 SW9       29.54R WCI  28
GREAT FALLS    CLOUDY    33  21  61 SW8       29.55R WCI  26
MALMSTROM AFB  CLOUDY    36  24  62 S14       29.56R WCI  27
HELENA         PTCLDY    38  35  89 W5        29.58R
AUGUSTA        MOCLDY    33  22  63 SW7       29.56R WCI  27
BOWMANS CRNR     N/A     36  26  66 W3        29.55R
CHOTEAU          N/A     36  28  75 S5        29.56S
CONRAD           N/A     31  28  88 W3        29.62R
POWER            N/A     32  26  77 NE3       29.55R
RAYNESFORD     CLOUDY    41  24  49 SW3       29.57R
ULM              N/A     36  27  69 MISG      29.56R
$$

MTZ011-013-016-021-045-047-050-051-200300-
NORTH CENTRAL MONTANA

CITY           SKY/WX    TMP DP  RH WIND       PRES   REMARKS
HAVRE          CLOUDY    35  30  82 S7        29.55R WCI  29
LEWISTOWN      CLOUDY    35  31  85 E5        29.58R
N BAR RANCH    MOCLDY    39  27  60 W6        29.61R
CHINOOK          N/A     37  36  93 CALM      29.55R
DENTON         CLOUDY    40  25  54 W12       29.53R
FORT BENTON      N/A    N/A N/A N/A MISG      29.56R
GEYSER         MOCLDY    37  26  63 SW12      29.57R WCI  29
GRASS RANGE    CLOUDY    37  34  89 SW6       29.55R WCI  32
JUDITH GAP     MOCLDY    38  26  62 W10       29.58R WCI  31
ROY            MOCLDY    40  27  59 MISG      29.56R
STANFORD         N/A     36  23  59 W13       29.58R WCI  28
WINIFRED       MOCLDY    42  29  61 S3        29.56R
$$

MTZ017>020-022>027-061-062-200300-
NORTHEAST MONTANA

CITY           SKY/WX    TMP DP  RH WIND       PRES   REMARKS
GLASGOW        FOG       32  31  96 S9        29.56R VSB 1/4 WCI  24
JORDAN           N/A     43  34  70 W3        29.55R
SIDNEY         CLOUDY    34  32  92 N6        29.53R WCI  29
WOLF POINT     FOG       34  32  92 SW3       29.57R VSB 1
PLENTYWOOD       N/A     34  34 100 N3        29.54R VSB 1/2
POPLAR           N/A     34  32  93 CALM      29.58R
SCOBEY           N/A     33  27  79 CALM      29.55R
$$

MTZ028>42-056>058-200300-
SOUTHCENTRAL AND SOUTHEAST MONTANA

CITY           SKY/WX    TMP DP  RH WIND       PRES   REMARKS
BAKER          PTCLDY    40  35  83 NE3       29.50R
BILLINGS       CLOUDY    43  29  57 N8        29.59R
LIVINGSTON     CLOUDY    34  30  85 W7        29.61R WCI  28
MILES CITY     CLOUDY    46  36  68 NW9       29.53R
BIG TIMBER     CLEAR     37  28  70 W5G12     29.63R
FORSYTH          N/A     48  37  66 W12       29.55R
HARLOWTON      MOCLDY    39  28  63 NW7       29.59R
LAUREL           N/A     40  21  46 CALM      29.63R
$$

REGIONAL REPORTS...DAKOTAS

CITY           SKY/WX    TMP DP  RH WIND       PRES   REMARKS
WILLISTON      FOG       33  32  96 N9        29.54R VSB 1/2 WCI  25
MINOT          CLOUDY    32  30  92 NW3       29.51S
DICKINSON      CLOUDY    44  36  73 NE6       29.47R
BEACH            N/A    N/A N/A N/A MISG        N/A
CROSBY         CLOUDY    32  32 100 CALM      29.56S FOG
TIOGA          FOG       32  32 100 E5        29.55R VSB 1/4
WATFORD CITY     N/A     32  32 100 CALM      29.52R
BISMARCK       CLOUDY    37  35  92 E8        29.53R WCI  31
GRAND FORKS    CLOUDY    41  33  73 SE10      29.62F
FARGO          PTCLDY    51  45  79 SE17G25   29.63S
BUFFALO SD       N/A     54  36  50 N12       29.42R
RAPID CITY     CLOUDY    57  32  38 SW12      29.53R
$$

REGIONAL REPORTS...WYOMING/IDAHO/WASHINGTON

CITY           SKY/WX    TMP DP  RH WIND       PRES   REMARKS
GILLETTE       CLOUDY    51  32  48 SW16      29.53R
SHERIDAN       CLOUDY    46  34  62 W15       29.59R
BUFFALO WY     CLOUDY    46  29  51 NW8       29.60R
CODY           CLOUDY    40  25  55 W9G16     29.65R
YELLOWSTONE LA   N/A     25  23  92 VRB6      29.74R WCI  18
IDAHO FALLS    CLEAR     34  31  88 S18       29.77R WCI  23
SALMON         CLOUDY    37  28  70 S15G23    29.68S WCI  28
BOISE          CLOUDY    44  36  73 N5        29.75R
SPOKANE        PTCLDY    36  34  92 E6        29.61R WCI  31
$$

REGIONAL REPORTS...ALBERTA

CITY           SKY/WX    TMP DP  RH WIND       PRES   REMARKS
EDMONTON       CLOUDY    34  30  86 W5        29.49R
CALGARY        CLOUDY    32  28  86 NE3       29.49R
LETHBRIDGE     PTCLDY    34  28  80 SW9       29.51R WCI  26
MEDICINE HAT   MOCLDY    34  28  80 SW6       29.50R WCI  29
WATERTON GATE    N/A     34  23  64 SW20G29     N/A  WCI  22
CARDSTON         N/A     36  21  55 SW3         N/A
MILK RIVER       N/A     34  25  69 SW8         N/A  WCI  27
ONEFOUR          N/A     36  34  93 SE2         N/A
$$

REGIONAL REPORTS...SASKATCHEWAN

CITY           SKY/WX    TMP DP  RH WIND       PRES   REMARKS
SWIFT CURRENT  PTCLDY    36  36 100 SW7       29.49R WCI  30
REGINA         DRIZZLE   32  32 100 SE9       29.57S WCI  24
SASKATOON      LGT RAIN  34  32  93 SE10      29.55R WCI  26
CYPRESS HILLS    N/A     36  27  69 W3          N/A
VAL MARIE        N/A     32  28  86 S1          N/A
ROCKGLEN         N/A     32  32 100 SW10        N/A  WCI  24
ASSINIBOIA       N/A     34  34 100 W5          N/A
$$



USA.gov is the U.S. government's official web portal to all federal, state and local government web resources and services.